Tracking 22454 objects as of 5-Mar-2021
HD Live streaming from Space Station
objects crossing your sky now

DELTA 1 DEB

Track DELTA 1 DEB now!
10-day predictions


NORAD ID: 21492
Int'l Code: 1975-052FM
Perigee: 1,094.6 km
Apogee: 1,188.5 km
Inclination: 99.6 °
Period: 108.0 minutes
Semi major axis: 7512 km
RCS: 0.0109 m2 (small)
Launch date: June 12, 1975
Source: United States (US)
Launch site: AIR FORCE WESTERN TEST RANGE (AFWTR)

Note: This is SATELLITE DEBRIS
aabbcc
Your satellite tracking list
Your tracking list is empty




NASA's NSSDC Master Catalog

Two Line Element Set (TLE):
1 21492U 75052FM  21063.29165248 -.00000011  00000-0  59454-4 0  9990
2 21492  99.6426 261.5305 0062471 180.6904 355.3323 13.33281979451376
Source of the keplerian elements: AFSPC